When you browse on this site, cookies collect data to enhance your experience and personalize the content and advertising you see.
Visit our Privacy Policy to learn more. By continuing to use the site, you agree to this use of cookies and data.
  • în România
  • Lista ţărilor
  • Pe 7 zile
  • Temperatura apei
  • Hartă satelitară
  • Meteo pe hartă
  • Widget-uri
  • user-avatar
    Intrare

    Meteo pe oră la Limerick

    Astăzi, 20 Ianuarie, Duminică

    Timp Temperatura Precipitaţii Vânt Presiune Umiditate
    00:00 +6°C° 0.2 mm 1 m/s 758 mmHg 96%
    01:00 +7°C° 0.2 mm 1 m/s 759 mmHg 96%
    02:00 +6°C° 0.2 mm 2 m/s 759 mmHg 97%
    03:00 +7°C° 0.5 mm 3 m/s 760 mmHg 94%
    04:00 +6°C° 0.5 mm 5 m/s 761 mmHg 92%
    05:00 +6°C° 0 mm 5 m/s 761 mmHg 91%
    06:00 +6°C° 0 mm 5 m/s 762 mmHg 90%
    07:00 +5°C° 0 mm 5 m/s 763 mmHg 89%
    08:00 +5°C° 0 mm 5 m/s 764 mmHg 88%
    09:00 +5°C° 0 mm 5 m/s 765 mmHg 85%
    10:00 +6°C° 0 mm 5 m/s 766 mmHg 82%
    11:00 +6°C° 0 mm 4 m/s 766 mmHg 79%
    12:00 +6°C° 0 mm 4 m/s 767 mmHg 78%
    13:00 +7°C° 0 mm 3 m/s 767 mmHg 77%
    14:00 +7°C° 0 mm 3 m/s 767 mmHg 76%
    15:00 +5°C° 0 mm 3 m/s 768 mmHg 80%
    16:00 +4°C° 0 mm 2 m/s 768 mmHg 85%
    17:00 +3°C° 0 mm 2 m/s 769 mmHg 89%
    18:00 +4°C° 0 mm 1 m/s 769 mmHg 89%
    19:00 +3°C° 0 mm 1 m/s 770 mmHg 89%
    20:00 +3°C° 0 mm 1 m/s 770 mmHg 90%
    21:00 +3°C° 0 mm 1 m/s 770 mmHg 89%
    22:00 +1°C° 0 mm 0 m/s 770 mmHg 89%
    23:00 +1°C° 0 mm 0 m/s 770 mmHg 88%

    Mâine, 21 Ianuarie, Luni

    Timp Temperatura Precipitaţii Vânt Presiune Umiditate
    00:00 +1°C° 0 mm 0 m/s 769 mmHg 88%
    01:00 +2°C° 0 mm 1 m/s 769 mmHg 88%
    02:00 +2°C° 0 mm 1 m/s 768 mmHg 88%
    03:00 +2°C° 0 mm 1 m/s 768 mmHg 88%
    04:00 +1°C° 0 mm 2 m/s 767 mmHg 87%
    05:00 +1°C° 0 mm 2 m/s 766 mmHg 86%
    06:00 +1°C° 0 mm 2 m/s 766 mmHg 85%
    07:00 +1°C° 0 mm 3 m/s 765 mmHg 84%
    08:00 +1°C° 0 mm 3 m/s 764 mmHg 83%
    09:00 +1°C° 0 mm 4 m/s 763 mmHg 82%
    10:00 +3°C° 0 mm 5 m/s 762 mmHg 81%
    11:00 +5°C° 0 mm 6 m/s 760 mmHg 80%
    12:00 +5°C° 0.9 mm 6 m/s 759 mmHg 83%
    13:00 +5°C° 0.9 mm 7 m/s 758 mmHg 87%
    14:00 +4°C° 0.9 mm 7 m/s 757 mmHg 90%
    15:00 +3°C° 1 mm 6 m/s 757 mmHg 88%
    16:00 +2°C° 1 mm 5 m/s 756 mmHg 86%
    17:00 +1°C° 1 mm 4 m/s 756 mmHg 84%
    18:00 +1°C° 0 mm 4 m/s 756 mmHg 84%
    19:00 0°C° 0 mm 4 m/s 756 mmHg 83%
    20:00 +1°C° 0 mm 3 m/s 756 mmHg 83%
    21:00 0°C° 0.2 mm 4 m/s 756 mmHg 84%
    22:00 0°C° 0.2 mm 4 m/s 756 mmHg 84%
    23:00 0°C° 0.2 mm 4 m/s 755 mmHg 85%

    Poimâine, 22 Ianuarie, Marţi

    Timp Temperatura Precipitaţii Vânt Presiune Umiditate
    00:00 0°C° 0.3 mm 4 m/s 755 mmHg 85%
    01:00 0°C° 0.3 mm 4 m/s 755 mmHg 84%
    02:00 0°C° 0.3 mm 4 m/s 754 mmHg 84%
    03:00 0°C° 0.2 mm 4 m/s 754 mmHg 84%
    04:00 0°C° 0.2 mm 4 m/s 754 mmHg 84%
    05:00 0°C° 0.2 mm 4 m/s 754 mmHg 85%
    06:00 +1°C° 0.2 mm 3 m/s 754 mmHg 85%
    07:00 +1°C° 0.2 mm 3 m/s 754 mmHg 86%
    08:00 +1°C° 0.2 mm 3 m/s 754 mmHg 87%
    09:00 +1°C° 0.2 mm 3 m/s 754 mmHg 88%
    10:00 +2°C° 0.2 mm 3 m/s 754 mmHg 88%
    11:00 +2°C° 0.2 mm 3 m/s 755 mmHg 89%
    12:00 +2°C° 0.4 mm 3 m/s 754 mmHg 90%
    13:00 +2°C° 0.4 mm 3 m/s 754 mmHg 91%
    14:00 +2°C° 0.4 mm 3 m/s 754 mmHg 93%
    15:00 +3°C° 0.5 mm 2 m/s 754 mmHg 93%
    16:00 +3°C° 0.5 mm 2 m/s 754 mmHg 94%
    17:00 +4°C° 0.5 mm 1 m/s 754 mmHg 95%
    18:00 +4°C° 0.2 mm 1 m/s 754 mmHg 96%
    19:00 +4°C° 0.2 mm 1 m/s 754 mmHg 96%
    20:00 +3°C° 0.2 mm 0 m/s 754 mmHg 96%
    21:00 +4°C° 0 mm 1 m/s 754 mmHg 96%
    22:00 +3°C° 0 mm 1 m/s 754 mmHg 95%
    23:00 +3°C° 0 mm 1 m/s 754 mmHg 95%

    23 Ianuarie, Miercuri

    Timp Temperatura Precipitaţii Vânt Presiune Umiditate
    00:00 +3°C° 0 mm 1 m/s 754 mmHg 96%
    01:00 +4°C° 0 mm 1 m/s 754 mmHg 96%
    02:00 +4°C° 0 mm 1 m/s 754 mmHg 97%
    03:00 +4°C° 0.1 mm 1 m/s 754 mmHg 97%
    04:00 +4°C° 0.1 mm 1 m/s 755 mmHg 97%
    05:00 +5°C° 0.1 mm 1 m/s 755 mmHg 98%
    06:00 +4°C° 0 mm 0 m/s 755 mmHg 98%
    07:00 +4°C° 0 mm 0 m/s 756 mmHg 98%
    08:00 +4°C° 0 mm 0 m/s 756 mmHg 98%
    09:00 +4°C° 0 mm 0 m/s 756 mmHg 98%
    10:00 +6°C° 0 mm 1 m/s 757 mmHg 98%
    11:00 +7°C° 0 mm 1 m/s 757 mmHg 98%
    12:00 +7°C° 0.1 mm 1 m/s 757 mmHg 98%
    13:00 +7°C° 0.1 mm 1 m/s 757 mmHg 99%
    14:00 +7°C° 0.1 mm 1 m/s 757 mmHg 99%
    15:00 +7°C° 0.4 mm 1 m/s 757 mmHg 99%
    16:00 +8°C° 0.4 mm 1 m/s 757 mmHg 99%
    17:00 +8°C° 0.4 mm 1 m/s 757 mmHg 99%
    18:00 +8°C° 0.6 mm 2 m/s 758 mmHg 98%
    19:00 +8°C° 0.6 mm 2 m/s 758 mmHg 98%
    20:00 +9°C° 0.6 mm 3 m/s 758 mmHg 98%
    21:00 +9°C° 0.2 mm 3 m/s 758 mmHg 97%
    22:00 +8°C° 0.2 mm 4 m/s 758 mmHg 97%
    23:00 +10°C° 0.2 mm 4 m/s 759 mmHg 97%

    24 Ianuarie, Joi

    Timp Temperatura Precipitaţii Vânt Presiune Umiditate
    00:00 +10°C° 0.1 mm 4 m/s 759 mmHg 97%
    01:00 +10°C° 0.1 mm 4 m/s 759 mmHg 96%
    02:00 +10°C° 0.1 mm 4 m/s 759 mmHg 96%
    03:00 +10°C° 0.1 mm 4 m/s 759 mmHg 96%
    04:00 +10°C° 0.1 mm 4 m/s 759 mmHg 96%
    05:00 +10°C° 0.1 mm 4 m/s 760 mmHg 96%
    06:00 +10°C° 0.1 mm 4 m/s 760 mmHg 96%
    07:00 +10°C° 0.1 mm 4 m/s 761 mmHg 96%
    08:00 +9°C° 0.1 mm 5 m/s 761 mmHg 95%
    09:00 +9°C° 0.1 mm 5 m/s 761 mmHg 94%
    10:00 +9°C° 0.1 mm 5 m/s 762 mmHg 92%
    11:00 +9°C° 0.1 mm 5 m/s 762 mmHg 91%
    12:00 +9°C° 0.1 mm 5 m/s 762 mmHg 90%
    13:00 +9°C° 0.1 mm 5 m/s 762 mmHg 90%
    14:00 +8°C° 0.1 mm 5 m/s 762 mmHg 89%
    15:00 +8°C° 0 mm 4 m/s 762 mmHg 90%
    16:00 +8°C° 0 mm 4 m/s 762 mmHg 90%
    17:00 +9°C° 0 mm 3 m/s 763 mmHg 91%
    18:00 +9°C° 0 mm 3 m/s 763 mmHg 91%
    19:00 +9°C° 0 mm 3 m/s 763 mmHg 91%
    20:00 +9°C° 0 mm 3 m/s 763 mmHg 91%
    21:00 +8°C° 0 mm 4 m/s 764 mmHg 91%
    22:00 +8°C° 0 mm 4 m/s 764 mmHg 91%
    23:00 +8°C° 0 mm 4 m/s 764 mmHg 91%

    25 Ianuarie, Vineri

    Timp Temperatura Precipitaţii Vânt Presiune Umiditate
    00:00 +7°C° 0 mm 4 m/s 764 mmHg 92%
    01:00 +7°C° 0 mm 4 m/s 764 mmHg 92%
    02:00 +7°C° 0 mm 4 m/s 764 mmHg 92%
    03:00 +7°C° 0 mm 4 m/s 763 mmHg 92%
    04:00 +6°C° 0 mm 4 m/s 763 mmHg 92%
    05:00 +6°C° 0 mm 4 m/s 763 mmHg 91%
    06:00 +6°C° 0 mm 4 m/s 763 mmHg 92%
    07:00 +6°C° 0 mm 4 m/s 763 mmHg 92%
    08:00 +6°C° 0 mm 4 m/s 763 mmHg 92%
    09:00 +7°C° 0 mm 4 m/s 763 mmHg 92%
    10:00 +8°C° 0 mm 5 m/s 763 mmHg 92%
    11:00 +9°C° 0 mm 5 m/s 763 mmHg 92%
    12:00 +9°C° 0.2 mm 5 m/s 762 mmHg 93%
    13:00 +9°C° 0.2 mm 5 m/s 762 mmHg 94%
    14:00 +9°C° 0.2 mm 5 m/s 761 mmHg 95%
    15:00 +9°C° 0.5 mm 5 m/s 761 mmHg 95%
    16:00 +9°C° 0.5 mm 5 m/s 760 mmHg 95%
    17:00 +9°C° 0.5 mm 5 m/s 760 mmHg 95%
    18:00 +9°C° 0.3 mm 6 m/s 759 mmHg 94%
    19:00 +9°C° 0.3 mm 6 m/s 758 mmHg 94%
    20:00 +9°C° 0.3 mm 6 m/s 758 mmHg 94%
    21:00 +9°C° 0.4 mm 6 m/s 757 mmHg 93%
    22:00 +9°C° 0.4 mm 7 m/s 756 mmHg 92%
    23:00 +9°C° 0.4 mm 7 m/s 756 mmHg 92%
    Arată mai mult